This is the latest recevied weather packets stored in our database for station/object SLG. If no packets are shown the sender has not sent any weather packets the latest 10 day(s).
| Time | Temp. | Humidity | Pressure | Rain* | Wind** | Luminosity | Snow |
|---|---|---|---|---|---|---|---|
| 1777804332 | 25.56° C | 38% | 1011.7 hPa | 0 mm | - | - | - |
| 1777802532 | 24.44° C | 40% | 1012 hPa | 0 mm | - | - | - |
| 1777800731 | 24.44° C | 40% | 1012.3 hPa | 0 mm | - | - | - |
| 1777798930 | 22.78° C | 41% | 1012.6 hPa | 0 mm | - | - | - |
| 1777797132 | 20.56° C | 50% | 1012.8 hPa | 0 mm | - | - | - |
| 1777795332 | 17.78° C | 58% | 1012.9 hPa | 0 mm | - | - | - |
| 1777793531 | 15.56° C | 64% | 1012.9 hPa | 0 mm | - | - | - |
| 1777791731 | 13.33° C | 70% | 1013 hPa | 0 mm | - | - | - |
| 1777789931 | 11.67° C | 80% | 1012.9 hPa | 0 mm | - | - | - |
| 1777788131 | 9.44° C | 84% | 1013 hPa | 0 mm | - | - | - |
| 1777786331 | 7.78° C | 83% | 1012.9 hPa | 0 mm | - | - | - |
| 1777784532 | 7.22° C | 81% | 1012.9 hPa | 0 mm | - | - | - |
| 1777782731 | 7.22° C | 79% | 1012.9 hPa | 0 mm | - | - | - |
| 1777780930 | 7.22° C | 78% | 1013 hPa | 0 mm | - | - | - |
| 1777779131 | 7.78° C | 77% | 1012.9 hPa | 0 mm | - | - | - |
| 1777777331 | 8.33° C | 77% | 1013 hPa | 0 mm | - | - | - |
| 1777775531 | 8.33° C | 76% | 1013 hPa | 0 mm | - | - | - |
| 1777773731 | 8.89° C | 76% | 1013.2 hPa | 0 mm | - | - | - |
| 1777771931 | 8.89° C | 73% | 1013.2 hPa | 0 mm | - | - | - |
| 1777770132 | 9.44° C | 72% | 1013.3 hPa | 0 mm | - | - | - |
| 1777768329 | 10° C | 71% | 1013.5 hPa | 0 mm | - | - | - |
| 1777766530 | 10.56° C | 70% | 1013.8 hPa | 0 mm | - | - | - |
| 1777764730 | 10.56° C | 68% | 1013.7 hPa | 0 mm | - | - | - |
| 1777762930 | 11.67° C | 66% | 1014 hPa | 0 mm | - | - | - |
| 1777761131 | 12.22° C | 65% | 1014 hPa | 0 mm | - | - | - |
* Rain since midnight (hover to see other rain measurements)
** Current wind speed in m/s (hover to see current wind gust speed)